| time (UTC) | temp C | wind direction | speed KPH | gust KPH | rain 1hr cm | rain 24hr cm | rain mn cm | humidity % | barometer mb |
| 20260506002305 | 27 | 123 | 4.8 | 16.1 | 0.00 | 0.00 | 0.00 | 78 | 1006.4 |
| 20260506001800 | 27 | 134 | 3.2 | 16.1 | 0.00 | 0.00 | 0.00 | 78 | 1006.4 |
| 20260506001303 | 27 | 152 | 3.2 | 11.3 | 0.00 | 0.00 | 0.00 | 78 | 1006.5 |
| 20260506000802 | 27 | 172 | 4.8 | 12.9 | 0.00 | 0.00 | 0.00 | 78 | 1006.5 |
| 20260506000257 | 27 | 168 | 4.8 | 12.9 | 0.00 | 0.00 | 0.00 | 78 | 1006.5 |
| 20260505235757 | 27 | 148 | 3.2 | 12.9 | 0.00 | 0.00 | 0.00 | 78 | 1006.4 |
| 20260505235255 | 27 | 167 | 4.8 | 12.9 | 0.00 | 0.00 | 0.00 | 78 | 1006.4 |
| 20260505234756 | 27 | 160 | 4.8 | 16.1 | 0.00 | 0.00 | 0.00 | 78 | 1006.3 |
| 20260505234255 | 27 | 167 | 4.8 | 16.1 | 0.00 | 0.00 | 0.00 | 78 | 1006.4 |
| 20260505234027 | 27 | 162 | 4.8 | 12.9 | 0.00 | 0.00 | 0.00 | 78 | 1006.4 |
| 20260505233254 | 27 | 119 | 4.8 | 12.9 | 0.00 | 0.00 | 0.00 | 78 | 1006.5 |
| 20260505232754 | 28 | 197 | 3.2 | 11.3 | 0.00 | 0.00 | 0.00 | 78 | 1006.5 |
| 20260505232523 | 28 | 150 | 3.2 | 11.3 | 0.00 | 0.00 | 0.00 | 78 | 1006.4 |
| 20260505231753 | 28 | 156 | 4.8 | 14.5 | 0.00 | 0.00 | 0.00 | 78 | 1006.4 |
| 20260505231256 | 28 | 196 | 4.8 | 14.5 | 0.00 | 0.00 | 0.00 | 78 | 1006.6 |
| 20260505230753 | 28 | 121 | 4.8 | 12.9 | 0.00 | 0.00 | 0.00 | 78 | 1006.5 |
| 20260505230252 | 28 | 181 | 4.8 | 14.5 | 0.00 | 0.00 | 0.00 | 78 | 1006.5 |
| 20260505225748 | 28 | 150 | 3.2 | 14.5 | 0.00 | 0.00 | 0.00 | 78 | 1006.5 |
| 20260505225520 | 28 | 124 | 3.2 | 12.9 | 0.00 | 0.00 | 0.00 | 78 | 1006.4 |
| 20260505224745 | 28 | 236 | 3.2 | 11.3 | 0.00 | 0.00 | 0.00 | 78 | 1006.4 |
| 20260505224244 | 28 | 139 | 1.6 | 11.3 | 0.00 | 0.00 | 0.00 | 78 | 1006.5 |
| 20260505224015 | 28 | 192 | 3.2 | 11.3 | 0.00 | 0.00 | 0.00 | 78 | 1006.5 |
| 20260505223245 | 28 | 195 | 3.2 | 11.3 | 0.00 | 0.00 | 0.00 | 78 | 1006.6 |
| 20260505222741 | 28 | 119 | 3.2 | 11.3 | 0.00 | 0.00 | 0.00 | 77 | 1006.5 |
| 20260505222242 | 28 | 153 | 3.2 | 14.5 | 0.00 | 0.00 | 0.00 | 78 | 1006.5 |
| 20260505221741 | 28 | 203 | 4.8 | 16.1 | 0.00 | 0.00 | 0.00 | 78 | 1006.5 |
| 20260505221229 | 28 | 143 | 4.8 | 16.1 | 0.00 | 0.00 | 0.00 | 78 | 1006.6 |
| 20260505220726 | 28 | 167 | 4.8 | 16.1 | 0.00 | 0.00 | 0.00 | 78 | 1006.6 |
| 20260505220229 | 28 | 179 | 4.8 | 17.7 | 0.00 | 0.00 | 0.00 | 78 | 1006.7 |
| 20260505215726 | 28 | 147 | 4.8 | 17.7 | 0.00 | 0.00 | 0.00 | 77 | 1006.7 |
| 20260505215228 | 28 | 106 | 4.8 | 20.9 | 0.00 | 0.00 | 0.00 | 77 | 1006.8 |
| 20260505215224 | 28 | 182 | 3.2 | 20.9 | 0.00 | 0.00 | 0.00 | 77 | 1006.7 |
| 20260505214229 | 28 | 163 | 4.8 | 20.9 | 0.00 | 0.00 | 0.00 | 76 | 1006.8 |
| 20260505213952 | 28 | 150 | 3.2 | 20.9 | 0.00 | 0.00 | 0.00 | 77 | 1006.8 |
| 20260505213451 | 28 | 222 | 3.2 | 12.9 | 0.00 | 0.00 | 0.00 | 76 | 1006.9 |
| 20260505212721 | 28 | 148 | 3.2 | 14.5 | 0.00 | 0.00 | 0.00 | 77 | 1007.0 |
| 20260505212452 | 28 | 172 | 3.2 | 14.5 | 0.00 | 0.00 | 0.00 | 77 | 1007.0 |
| 20260505211719 | 28 | 191 | 4.8 | 14.5 | 0.00 | 0.00 | 0.00 | 76 | 1007.0 |
| 20260505211217 | 28 | 238 | 4.8 | 12.9 | 0.00 | 0.00 | 0.00 | 76 | 1007.1 |
| 20260505210718 | 28 | 140 | 4.8 | 12.9 | 0.00 | 0.00 | 0.00 | 77 | 1007.1 |
| 20260505210216 | 28 | 135 | 4.8 | 12.9 | 0.00 | 0.00 | 0.00 | 77 | 1007.2 |
| 20260505205945 | 28 | 171 | 4.8 | 12.9 | 0.00 | 0.00 | 0.00 | 77 | 1007.3 |
| 20260505205445 | 28 | 150 | 3.2 | 12.9 | 0.00 | 0.00 | 0.00 | 78 | 1007.4 |
| 20260505204717 | 28 | 160 | 3.2 | 11.3 | 0.00 | 0.00 | 0.00 | 78 | 1007.4 |
| 20260505204212 | 28 | 164 | 3.2 | 12.9 | 0.00 | 0.00 | 0.00 | 78 | 1007.5 |
| 20260505203713 | 28 | 246 | 3.2 | 12.9 | 0.00 | 0.00 | 0.00 | 78 | 1007.5 |
| 20260505203213 | 28 | 124 | 1.6 | 12.9 | 0.00 | 0.00 | 0.00 | 78 | 1007.7 |
| 20260505202711 | 28 | 100 | 3.2 | 12.9 | 0.00 | 0.00 | 0.00 | 77 | 1007.7 |
| 20260505202209 | 28 | 231 | 3.2 | 12.9 | 0.00 | 0.00 | 0.00 | 77 | 1007.8 |
| 20260505201707 | 28 | 200 | 3.2 | 12.9 | 0.00 | 0.00 | 0.00 | 78 | 1008.0 |
| 20260505201208 | 28 | 158 | 3.2 | 11.3 | 0.00 | 0.00 | 0.00 | 77 | 1008.0 |
| 20260505200708 | 28 | 219 | 3.2 | 9.7 | 0.00 | 0.00 | 0.00 | 77 | 1007.9 |
| 20260505200206 | 28 | 188 | 3.2 | 11.3 | 0.00 | 0.00 | 0.00 | 77 | 1008.0 |
| 20260505195708 | 28 | 144 | 3.2 | 11.3 | 0.00 | 0.00 | 0.00 | 77 | 1008.1 |
| 20260505195207 | 28 | 209 | 4.8 | 11.3 | 0.00 | 0.00 | 0.00 | 77 | 1008.1 |
| 20260505194939 | 28 | 90 | 3.2 | 11.3 | 0.00 | 0.00 | 0.00 | 78 | 1008.1 |
| 20260505194438 | 28 | 138 | 3.2 | 12.9 | 0.00 | 0.00 | 0.00 | 78 | 1008.2 |
| 20260505193700 | 27 | 142 | 4.8 | 12.9 | 0.00 | 0.00 | 0.00 | 78 | 1008.3 |
| 20260505193157 | 28 | 198 | 3.2 | 12.9 | 0.00 | 0.00 | 0.00 | 78 | 1008.3 |
| 20260505192656 | 28 | 197 | 3.2 | 12.9 | 0.00 | 0.00 | 0.00 | 78 | 1008.3 |
| 20260505192201 | 28 | 190 | 4.8 | 16.1 | 0.00 | 0.00 | 0.00 | 78 | 1008.5 |
| 20260505192157 | 28 | 134 | 3.2 | 12.9 | 0.00 | 0.00 | 0.00 | 78 | 1008.4 |
| 20260505191158 | 27 | 127 | 3.2 | 16.1 | 0.00 | 0.00 | 0.00 | 78 | 1008.5 |
| 20260505190921 | 27 | 42 | 3.2 | 9.7 | 0.00 | 0.00 | 0.00 | 79 | 1008.5 |
| 20260505190151 | 27 | 122 | 3.2 | 12.9 | 0.00 | 0.00 | 0.00 | 80 | 1008.5 |
| 20260505185650 | 27 | 156 | 3.2 | 12.9 | 0.00 | 0.00 | 0.00 | 80 | 1008.6 |
| 20260505185150 | 27 | 168 | 3.2 | 8.0 | 0.00 | 0.00 | 0.00 | 80 | 1008.6 |
| 20260505184650 | 27 | 166 | 3.2 | 17.7 | 0.00 | 0.00 | 0.00 | 80 | 1008.7 |
| 20260505184424 | 27 | 140 | 3.2 | 17.7 | 0.00 | 0.00 | 0.00 | 80 | 1008.7 |
| 20260505183651 | 27 | 163 | 4.8 | 17.7 | 0.00 | 0.00 | 0.00 | 80 | 1008.7 |
| 20260505183146 | 27 | 149 | 4.8 | 17.7 | 0.00 | 0.00 | 0.00 | 81 | 1008.7 |
| 20260505182646 | 27 | 177 | 3.2 | 12.9 | 0.00 | 0.00 | 0.00 | 82 | 1008.7 |
| 20260505182146 | 26 | 159 | 3.2 | 12.9 | 0.00 | 0.00 | 0.00 | 82 | 1008.8 |
| 20260505181646 | 26 | 130 | 4.8 | 11.3 | 0.00 | 0.00 | 0.00 | 82 | 1008.9 |
| 20260505181146 | 26 | 159 | 3.2 | 11.3 | 0.00 | 0.00 | 0.00 | 82 | 1008.9 |
| 20260505180648 | 26 | 146 | 3.2 | 11.3 | 0.00 | 0.00 | 0.00 | 82 | 1008.9 |
| 20260505180417 | 26 | 171 | 3.2 | 9.7 | 0.00 | 0.00 | 0.00 | 82 | 1009.0 |
| 20260505175647 | 26 | 137 | 3.2 | 8.0 | 0.00 | 0.00 | 0.00 | 82 | 1009.0 |
| 20260505175144 | 26 | 140 | 1.6 | 11.3 | 0.00 | 0.00 | 0.00 | 82 | 1009.0 |
| 20260505174913 | 26 | 147 | 1.6 | 11.3 | 0.00 | 0.00 | 0.00 | 82 | 1009.1 |
| 20260505174142 | 26 | 144 | 3.2 | 11.3 | 0.00 | 0.00 | 0.00 | 82 | 1009.2 |
| 20260505173644 | 26 | 99 | 1.6 | 11.3 | 0.00 | 0.00 | 0.00 | 82 | 1009.2 |
| 20260505173141 | 26 | 119 | 3.2 | 11.3 | 0.00 | 0.00 | 0.00 | 82 | 1009.2 |
| 20260505172911 | 26 | 131 | 3.2 | 11.3 | 0.00 | 0.00 | 0.00 | 82 | 1009.2 |
| 20260505172409 | 26 | 109 | 3.2 | 11.3 | 0.00 | 0.00 | 0.00 | 83 | 1009.2 |
| 20260505171638 | 26 | 138 | 1.6 | 11.3 | 0.00 | 0.00 | 0.00 | 83 | 1009.1 |
| 20260505171143 | 26 | 174 | 1.6 | 9.7 | 0.00 | 0.00 | 0.00 | 83 | 1009.5 |
| 20260505171139 | 26 | 159 | 1.6 | 9.7 | 0.00 | 0.00 | 0.00 | 83 | 1009.4 |
| 20260505170135 | 26 | 200 | 1.6 | 11.3 | 0.00 | 0.00 | 0.00 | 83 | 1009.5 |
| 20260505165909 | 26 | 148 | 0.0 | 11.3 | 0.00 | 0.00 | 0.00 | 83 | 1009.5 |
| 20260505165138 | 26 | 148 | 1.6 | 12.9 | 0.00 | 0.00 | 0.00 | 83 | 1009.5 |
| 20260505164632 | 26 | 111 | 1.6 | 12.9 | 0.00 | 0.00 | 0.00 | 83 | 1009.5 |
| 20260505164132 | 26 | 117 | 3.2 | 12.9 | 0.00 | 0.00 | 0.00 | 83 | 1009.5 |
| 20260505163903 | 26 | 179 | 3.2 | 12.9 | 0.00 | 0.00 | 0.00 | 83 | 1009.4 |
| 20260505163132 | 26 | 184 | 3.2 | 9.7 | 0.00 | 0.00 | 0.00 | 83 | 1009.4 |
| 20260505162900 | 26 | 126 | 3.2 | 9.7 | 0.00 | 0.00 | 0.00 | 83 | 1009.4 |
| 20260505162132 | 26 | 155 | 4.8 | 14.5 | 0.00 | 0.00 | 0.00 | 83 | 1009.4 |
| 20260505161622 | 25 | 146 | 3.2 | 14.5 | 0.00 | 0.00 | 0.00 | 83 | 1009.2 |
| 20260505161123 | 25 | 127 | 3.2 | 11.3 | 0.00 | 0.00 | 0.00 | 84 | 1009.2 |
| 20260505160621 | 25 | 150 | 3.2 | 11.3 | 0.00 | 0.00 | 0.00 | 84 | 1009.2 |
| 20260505160351 | 25 | 157 | 3.2 | 11.3 | 0.00 | 0.00 | 0.00 | 84 | 1009.2 |
| 20260505153118 | 25 | 178 | 3.2 | 8.0 | 0.00 | 0.00 | 0.00 | 85 | 1009.0 |
| 20260505152617 | 25 | 126 | 3.2 | 14.5 | 0.00 | 0.00 | 0.00 | 85 | 1009.1 |
| 20260505152116 | 25 | 212 | 3.2 | 14.5 | 0.00 | 0.00 | 0.00 | 85 | 1009.0 |
| 20260505151616 | 25 | 157 | 3.2 | 16.1 | 0.00 | 0.00 | 0.00 | 85 | 1009.0 |
| 20260505151347 | 25 | 82 | 1.6 | 16.1 | 0.00 | 0.00 | 0.00 | 85 | 1009.0 |
| 20260505150615 | 25 | 300 | 1.6 | 9.7 | 0.00 | 0.00 | 0.00 | 85 | 1009.0 |
| 20260505150346 | 25 | 162 | 1.6 | 9.7 | 0.00 | 0.00 | 0.00 | 85 | 1009.0 |
| 20260505124550 | 23 | 0 | 1.6 | 6.4 | 0.00 | 0.00 | 0.00 | 86 | 1008.6 |
| 20260505124048 | 23 | 0 | 1.6 | 6.4 | 0.00 | 0.00 | 0.00 | 86 | 1008.6 |
| 20260505123816 | 23 | 0 | 1.6 | 8.0 | 0.00 | 0.00 | 0.00 | 86 | 1008.6 |
| 20260505123317 | 23 | 0 | 1.6 | 8.0 | 0.00 | 0.00 | 0.00 | 86 | 1008.6 |
| 20260505122544 | 23 | 0 | 1.6 | 8.0 | 0.00 | 0.00 | 0.00 | 86 | 1008.5 |
| 20260505122040 | 23 | 0 | 1.6 | 9.7 | 0.00 | 0.00 | 0.00 | 86 | 1008.5 |
| 20260505121540 | 23 | 0 | 1.6 | 9.7 | 0.00 | 0.00 | 0.00 | 86 | 1008.3 |
| 20260505121041 | 23 | 0 | 1.6 | 8.0 | 0.00 | 0.00 | 0.00 | 86 | 1008.1 |
| 20260505120539 | 23 | 0 | 3.2 | 8.0 | 0.00 | 0.00 | 0.00 | 86 | 1008.0 |
| 20260505120036 | 23 | 0 | 3.2 | 9.7 | 0.00 | 0.00 | 0.00 | 86 | 1007.9 |
| 20260505115535 | 23 | 0 | 3.2 | 9.7 | 0.00 | 0.00 | 0.00 | 86 | 1008.0 |
| 20260505115307 | 23 | 0 | 1.6 | 8.0 | 0.00 | 0.00 | 0.00 | 86 | 1008.3 |
| 20260505114808 | 23 | 0 | 1.6 | 8.0 | 0.00 | 0.00 | 0.00 | 86 | 1008.5 |
| 20260505114037 | 23 | 0 | 3.2 | 12.9 | 0.00 | 0.00 | 0.00 | 86 | 1008.5 |
| 20260505113532 | 23 | 0 | 3.2 | 12.9 | 0.00 | 0.00 | 0.00 | 86 | 1008.4 |
| 20260505113031 | 23 | 0 | 3.2 | 12.9 | 0.00 | 0.00 | 0.00 | 86 | 1008.4 |
| 20260505112529 | 23 | 0 | 3.2 | 12.9 | 0.00 | 0.00 | 0.00 | 86 | 1008.2 |
| 20260505112027 | 23 | 0 | 3.2 | 8.0 | 0.00 | 0.00 | 0.00 | 86 | 1008.2 |
| 20260505111759 | 23 | 0 | 3.2 | 6.4 | 0.00 | 0.00 | 0.00 | 86 | 1008.1 |
| 20260505111645 | 23 | 0 | 3.2 | 6.4 | 0.00 | 0.00 | 0.00 | 85 | 1008.1 |
| 20260505110523 | 23 | 0 | 1.6 | 6.4 | 0.00 | 0.00 | 0.00 | 85 | 1008.0 |
| 20260505101516 | 22 | 0 | 1.6 | 6.4 | 0.00 | 0.00 | 0.00 | 85 | 1008.2 |
| 20260505101020 | 22 | 0 | 1.6 | 4.8 | 0.00 | 0.00 | 0.00 | 85 | 1008.5 |
| 20260505101016 | 22 | 0 | 1.6 | 6.4 | 0.00 | 0.00 | 0.00 | 85 | 1008.3 |
| 20260505100012 | 22 | 0 | 1.6 | 4.8 | 0.00 | 0.00 | 0.00 | 85 | 1008.5 |
| 20260505095517 | 22 | 0 | 1.6 | 8.0 | 0.00 | 0.00 | 0.00 | 85 | 1008.2 |
| 20260505095512 | 22 | 0 | 1.6 | 8.0 | 0.00 | 0.00 | 0.00 | 85 | 1008.4 |
| 20260505094508 | 22 | 0 | 1.6 | 8.0 | 0.00 | 0.00 | 0.00 | 85 | 1008.1 |
| 20260505094239 | 22 | 0 | 1.6 | 9.7 | 0.00 | 0.00 | 0.00 | 85 | 1008.2 |
| 20260505093508 | 22 | 0 | 1.6 | 9.7 | 0.00 | 0.00 | 0.00 | 85 | 1008.4 |
| 20260505093007 | 22 | 0 | 1.6 | 9.7 | 0.00 | 0.00 | 0.00 | 85 | 1008.3 |
| 20260505093002 | 22 | 0 | 1.6 | 9.7 | 0.00 | 0.00 | 0.00 | 85 | 1008.4 |
| 20260505092000 | 22 | 0 | 1.6 | 6.4 | 0.00 | 0.00 | 0.00 | 85 | 1008.6 |
| 20260505091504 | 22 | 0 | 1.6 | 8.0 | 0.00 | 0.00 | 0.00 | 84 | 1008.6 |
| 20260505091500 | 22 | 0 | 1.6 | 6.4 | 0.00 | 0.00 | 0.00 | 84 | 1008.6 |
| 20260505090501 | 22 | 0 | 1.6 | 8.0 | 0.00 | 0.00 | 0.00 | 84 | 1008.6 |
| 20260505085958 | 22 | 0 | 1.6 | 8.0 | 0.00 | 0.00 | 0.00 | 84 | 1008.6 |
| 20260505085459 | 22 | 0 | 1.6 | 6.4 | 0.00 | 0.00 | 0.00 | 84 | 1008.6 |
| 20260505084957 | 22 | 0 | 1.6 | 6.4 | 0.00 | 0.00 | 0.00 | 84 | 1008.6 |
| 20260505084457 | 22 | 0 | 1.6 | 6.4 | 0.00 | 0.00 | 0.00 | 84 | 1008.6 |
| 20260505083957 | 22 | 0 | 1.6 | 4.8 | 0.00 | 0.00 | 0.00 | 84 | 1008.6 |
| 20260505083728 | 22 | 0 | 0.0 | 4.8 | 0.00 | 0.00 | 0.00 | 83 | 1008.6 |
| 20260505083001 | 22 | 0 | 1.6 | 8.0 | 0.00 | 0.00 | 0.00 | 83 | 1008.8 |
| 20260505082956 | 22 | 0 | 0.0 | 4.8 | 0.00 | 0.00 | 0.00 | 83 | 1008.7 |
| 20260505082225 | 22 | 0 | 1.6 | 8.0 | 0.00 | 0.00 | 0.00 | 83 | 1008.8 |
| 20260505081451 | 22 | 0 | 1.6 | 8.0 | 0.00 | 0.00 | 0.00 | 83 | 1008.9 |
| 20260505080952 | 22 | 0 | 1.6 | 8.0 | 0.00 | 0.00 | 0.00 | 83 | 1008.9 |
| 20260505080455 | 22 | 0 | 1.6 | 4.8 | 0.00 | 0.00 | 0.00 | 83 | 1009.0 |
| 20260505080450 | 22 | 0 | 1.6 | 6.4 | 0.00 | 0.00 | 0.00 | 83 | 1008.9 |
| 20260505075450 | 22 | 0 | 1.6 | 6.4 | 0.00 | 0.00 | 0.00 | 83 | 1009.0 |
| 20260505074951 | 22 | 0 | 3.2 | 9.7 | 0.00 | 0.00 | 0.00 | 83 | 1009.0 |
| 20260505074448 | 22 | 0 | 3.2 | 9.7 | 0.00 | 0.00 | 0.00 | 83 | 1009.0 |
| 20260505073951 | 22 | 0 | 3.2 | 9.7 | 0.00 | 0.00 | 0.00 | 83 | 1009.1 |
| 20260505073443 | 22 | 0 | 3.2 | 16.1 | 0.00 | 0.00 | 0.00 | 83 | 1009.1 |
| 20260505073215 | 22 | 0 | 3.2 | 16.1 | 0.00 | 0.00 | 0.00 | 83 | 1009.1 |
| 20260505072447 | 22 | 0 | 3.2 | 16.1 | 0.00 | 0.00 | 0.00 | 83 | 1009.1 |
| 20260505071943 | 22 | 0 | 3.2 | 16.1 | 0.00 | 0.00 | 0.00 | 82 | 1009.1 |
| 20260505071442 | 22 | 0 | 1.6 | 8.0 | 0.00 | 0.00 | 0.00 | 82 | 1009.2 |
| 20260505071214 | 22 | 0 | 1.6 | 6.4 | 0.00 | 0.00 | 0.00 | 82 | 1009.2 |
| 20260505070715 | 22 | 0 | 3.2 | 9.7 | 0.00 | 0.00 | 0.00 | 82 | 1009.4 |
| 20260505070213 | 22 | 0 | 1.6 | 9.7 | 0.00 | 0.00 | 0.00 | 82 | 1009.4 |
| 20260505065427 | 22 | 0 | 3.2 | 9.7 | 0.00 | 0.00 | 0.00 | 82 | 1009.5 |
| 20260505064931 | 22 | 0 | 1.6 | 8.0 | 0.00 | 0.00 | 0.00 | 81 | 1009.7 |
| 20260505064927 | 22 | 0 | 1.6 | 9.7 | 0.00 | 0.00 | 0.00 | 82 | 1009.5 |
| 20260505063921 | 22 | 0 | 3.2 | 8.0 | 0.00 | 0.00 | 0.00 | 81 | 1009.7 |
| 20260505063421 | 22 | 0 | 1.6 | 6.4 | 0.00 | 0.00 | 0.00 | 81 | 1009.9 |
| 20260505062920 | 22 | 0 | 1.6 | 8.0 | 0.00 | 0.00 | 0.00 | 81 | 1010.0 |
| 20260505062420 | 22 | 0 | 1.6 | 8.0 | 0.00 | 0.00 | 0.00 | 81 | 1010.1 |
| 20260505061919 | 22 | 0 | 0.0 | 6.4 | 0.00 | 0.00 | 0.00 | 81 | 1010.1 |
| 20260505061418 | 22 | 0 | 1.6 | 6.4 | 0.00 | 0.00 | 0.00 | 81 | 1010.3 |
| 20260505060918 | 22 | 0 | 3.2 | 8.0 | 0.00 | 0.00 | 0.00 | 80 | 1010.3 |
| 20260505060419 | 22 | 0 | 1.6 | 8.0 | 0.00 | 0.00 | 0.00 | 80 | 1010.1 |
| 20260505060149 | 22 | 0 | 1.6 | 4.8 | 0.00 | 0.00 | 0.00 | 81 | 1010.2 |
| 20260505055648 | 22 | 0 | 3.2 | 9.7 | 0.00 | 0.00 | 0.00 | 80 | 1010.2 |
| 20260505054917 | 22 | 0 | 3.2 | 9.7 | 0.00 | 0.00 | 0.00 | 80 | 1010.1 |
| 20260505054416 | 22 | 0 | 3.2 | 9.7 | 0.00 | 0.00 | 0.00 | 80 | 1010.1 |
| 20260505053916 | 22 | 0 | 3.2 | 9.7 | 0.00 | 0.00 | 0.00 | 80 | 1010.2 |
| 20260505053418 | 22 | 0 | 1.6 | 6.4 | 0.00 | 0.00 | 0.00 | 80 | 1010.4 |
| 20260505052915 | 22 | 0 | 1.6 | 6.4 | 0.00 | 0.00 | 0.00 | 80 | 1010.4 |
| 20260505052415 | 22 | 0 | 1.6 | 12.9 | 0.00 | 0.00 | 0.00 | 79 | 1010.6 |
| 20260505052143 | 22 | 0 | 1.6 | 12.9 | 0.00 | 0.00 | 0.00 | 79 | 1010.5 |
| 20260505051641 | 22 | 0 | 1.6 | 9.7 | 0.00 | 0.00 | 0.00 | 79 | 1010.5 |
| 20260505050909 | 22 | 0 | 1.6 | 8.0 | 0.00 | 0.00 | 0.00 | 79 | 1010.5 |
| 20260505050410 | 23 | 0 | 1.6 | 4.8 | 0.00 | 0.00 | 0.00 | 79 | 1010.5 |
| 20260505050141 | 23 | 0 | 1.6 | 4.8 | 0.00 | 0.00 | 0.00 | 79 | 1010.5 |
| 20260505041407 | 23 | 0 | 3.2 | 8.0 | 0.00 | 0.00 | 0.00 | 78 | 1010.5 |
| 20260505040905 | 23 | 0 | 1.6 | 6.4 | 0.00 | 0.00 | 0.00 | 78 | 1010.8 |
| 20260505040406 | 23 | 0 | 1.6 | 14.5 | 0.00 | 0.00 | 0.00 | 78 | 1010.9 |
| 20260505040137 | 23 | 0 | 1.6 | 14.5 | 0.00 | 0.00 | 0.00 | 78 | 1010.8 |
| 20260505035636 | 23 | 0 | 3.2 | 14.5 | 0.00 | 0.00 | 0.00 | 78 | 1010.7 |
| 20260505034903 | 23 | 0 | 3.2 | 14.5 | 0.00 | 0.00 | 0.00 | 78 | 1011.0 |
| 20260505034405 | 23 | 0 | 3.2 | 17.7 | 0.00 | 0.00 | 0.00 | 78 | 1011.0 |
| 20260505033903 | 23 | 0 | 3.2 | 17.7 | 0.00 | 0.00 | 0.00 | 78 | 1011.0 |
| 20260505033401 | 23 | 0 | 3.2 | 16.1 | 0.00 | 0.00 | 0.00 | 77 | 1011.0 |
| 20260505032900 | 23 | 0 | 3.2 | 16.1 | 0.00 | 0.00 | 0.00 | 77 | 1011.1 |
| 20260505032357 | 23 | 0 | 4.8 | 16.1 | 0.00 | 0.00 | 0.00 | 77 | 1011.0 |
| 20260505031855 | 23 | 0 | 3.2 | 12.9 | 0.00 | 0.00 | 0.00 | 77 | 1010.9 |
| 20260505031352 | 23 | 0 | 3.2 | 12.9 | 0.00 | 0.00 | 0.00 | 77 | 1010.9 |
| 20260505030851 | 23 | 0 | 4.8 | 12.9 | 0.00 | 0.00 | 0.00 | 77 | 1010.9 |
| 20260505030349 | 23 | 0 | 3.2 | 14.5 | 0.00 | 0.00 | 0.00 | 77 | 1010.9 |
| 20260505025850 | 23 | 0 | 4.8 | 14.5 | 0.00 | 0.00 | 0.00 | 77 | 1010.9 |
| 20260505025618 | 23 | 0 | 3.2 | 17.7 | 0.00 | 0.00 | 0.00 | 77 | 1011.0 |
| 20260505024846 | 23 | 0 | 3.2 | 17.7 | 0.00 | 0.00 | 0.00 | 77 | 1011.0 |
| 20260505024347 | 24 | 0 | 3.2 | 9.7 | 0.00 | 0.00 | 0.00 | 77 | 1011.0 |
| 20260505023847 | 24 | 0 | 3.2 | 9.7 | 0.00 | 0.00 | 0.00 | 76 | 1010.9 |
| 20260505023345 | 24 | 0 | 3.2 | 14.5 | 0.00 | 0.00 | 0.00 | 76 | 1010.9 |
| 20260505022848 | 24 | 0 | 3.2 | 16.1 | 0.00 | 0.00 | 0.00 | 76 | 1010.7 |
| 20260505022843 | 24 | 0 | 3.2 | 14.5 | 0.00 | 0.00 | 0.00 | 76 | 1010.8 |
| 20260505021839 | 24 | 0 | 4.8 | 16.1 | 0.00 | 0.00 | 0.00 | 76 | 1010.8 |
| 20260505021335 | 24 | 0 | 3.2 | 14.5 | 0.00 | 0.00 | 0.00 | 75 | 1010.8 |
| 20260505020836 | 24 | 0 | 3.2 | 14.5 | 0.00 | 0.00 | 0.00 | 75 | 1010.8 |
| 20260505020333 | 24 | 0 | 4.8 | 12.9 | 0.00 | 0.00 | 0.00 | 75 | 1010.7 |
| 20260505015835 | 24 | 0 | 4.8 | 12.9 | 0.00 | 0.00 | 0.00 | 75 | 1010.7 |
| 20260505015333 | 24 | 0 | 3.2 | 20.9 | 0.00 | 0.00 | 0.00 | 75 | 1010.6 |
| 20260505014836 | 24 | 0 | 1.6 | 20.9 | 0.00 | 0.00 | 0.00 | 74 | 1010.6 |
| 20260505014333 | 24 | 0 | 3.2 | 20.9 | 0.00 | 0.00 | 0.00 | 74 | 1010.6 |
| 20260505013835 | 25 | 0 | 4.8 | 20.9 | 0.00 | 0.00 | 0.00 | 74 | 1010.6 |
| 20260505013829 | 25 | 0 | 3.2 | 12.9 | 0.00 | 0.00 | 0.00 | 74 | 1010.6 |
| 20260505013100 | 25 | 0 | 3.2 | 14.5 | 0.00 | 0.00 | 0.00 | 74 | 1010.4 |
| 20260505012327 | 25 | 0 | 3.2 | 16.1 | 0.00 | 0.00 | 0.00 | 73 | 1010.3 |
| 20260505011829 | 25 | 0 | 3.2 | 16.1 | 0.00 | 0.00 | 0.00 | 73 | 1010.2 |
| 20260505011558 | 25 | 0 | 3.2 | 16.1 | 0.00 | 0.00 | 0.00 | 73 | 1010.4 |
| 20260505010826 | 25 | 0 | 3.2 | 16.1 | 0.00 | 0.00 | 0.00 | 72 | 1010.4 |
| 20260505010327 | 25 | 0 | 3.2 | 12.9 | 0.00 | 0.00 | 0.00 | 72 | 1010.3 |
| 20260505005819 | 25 | 0 | 3.2 | 12.9 | 0.00 | 0.00 | 0.00 | 72 | 1010.2 |
| 20260505005318 | 25 | 0 | 3.2 | 14.5 | 0.00 | 0.00 | 0.00 | 72 | 1010.1 |
| 20260505004819 | 25 | 0 | 3.2 | 14.5 | 0.00 | 0.00 | 0.00 | 72 | 1010.2 |
| 20260505004317 | 25 | 0 | 3.2 | 12.9 | 0.00 | 0.00 | 0.00 | 71 | 1010.1 |
| 20260505003816 | 25 | 0 | 4.8 | 12.9 | 0.00 | 0.00 | 0.00 | 71 | 1010.1 |
| 20260505003314 | 25 | 159 | 4.8 | 14.5 | 0.00 | 0.00 | 0.00 | 71 | 1010.0 |
| 20260505002809 | 25 | 177 | 4.8 | 16.1 | 0.00 | 0.00 | 0.00 | 71 | 1010.1 |